Regional Weather Roundup
Issued by NWS Upton, NY

Home | Current Version | Previous Version | Text Only | Print | Product List | Glossary On
Versions: 1 2 3 4 5 6 7 8 9 10 11 12 13 14 15 16 17 18 19 20 21 22 23 24 25 26 27 28 29 30 31 32 33 34 35 36 37 38 39 40 41 42 43 44 45 46 47 48 49 50
000
ASUS41 KOKX 212205
RWROKX

REGIONAL WEATHER ROUNDUP
NATIONAL WEATHER SERVICE NEW YORK NY
500 PM EST SUN DEC 21 2014

NOTE: "FAIR" INDICATES FEW OR NO CLOUDS BELOW 12,000 FEET WITH NO
SIGNIFICANT WEATHER AND/OR OBSTRUCTIONS TO VISIBILITY.

NYZ071-072-176-178-NJZ106-104-212300-
NEW YORK CITY METRO AREA


CITY           SKY/WX    TMP DP  RH WIND       PRES   REMARKS
CENTRAL PARK   CLOUDY    35  26  69 N8        30.31S WCI  29
LAGUARDIA APRT CLOUDY    36  28  73 N7        30.30S WCI  30
KENNEDY INTL   CLOUDY    37  28  70 N8        30.30F WCI  31
NEWARK/LIBERTY CLOUDY    36  27  69 N10       30.30S WCI  28
BRNX BOT. GARD   N/A    N/A N/A N/A NW1       30.29F
TETERBORO      CLOUDY    36  26  67 N8        30.29S WCI  30
$$

NYZ177-179-078>081-212300-
LONG ISLAND NEW YORK

CITY           SKY/WX    TMP DP  RH WIND       PRES   REMARKS
FARMINGDALE    CLOUDY    36  30  79 N7        30.29S WCI  30
ISLIP          CLOUDY    36  32  85 N7        30.28R FOG     WCI  30
SHIRLEY        CLOUDY    37  33  85 N9        30.29R WCI  30
WESTHAMPTON    CLOUDY    37  35  92 N8        30.29R WCI  31
MONTAUK POINT    N/A     39  36  89 NE9G17    30.28R WCI  33
$$

NYZ052-065-067-212300-
HUDSON VALLEY

CITY           SKY/WX    TMP DP  RH WIND       PRES   REMARKS
WHITE PLAINS   LGT SNOW  32  29  88 N8        30.27S FOG     WCI  25
NEWBURGH       CLOUDY    32  28  86 VRB5      30.31  FOG     WCI  27
MONTGOMERY     CLOUDY    32  27  81 NE6       30.29R WCI  26
POUGHKEEPSIE   CLOUDY    33  26  75 N6        30.32R WCI  28
ALBANY         CLOUDY    31  23  72 CALM      30.34R
$$

NJZ001-105-106-008-010-013-015-019>022-104-212300-
NEW JERSEY

CITY           SKY/WX    TMP DP  RH WIND       PRES   REMARKS
NEWARK/LIBERTY CLOUDY    36  27  69 N10       30.30S WCI  28
TETERBORO      CLOUDY    36  26  67 N8        30.29S WCI  30
CALDWELL       CLOUDY    34  26  72 CALM      30.31S
MORRISTOWN     CLOUDY    36  27  69 N5        30.30S WCI  32
SOMERVILLE     CLOUDY    37  25  61 N3        30.28S
SUSSEX         CLOUDY    33  27  78 NE5       30.29R WCI  29
ANDOVER          N/A     33  24  69 N5        30.28S WCI  29
TRENTON        CLOUDY    34  23  64 N3        30.30R
MILLVILLE      CLEAR     35  23  61 NW5       30.29R WCI  31
ATLANTIC CITY  CLEAR     34  21  59 NW5       30.29R WCI  30
WRIGHTSTOWN    CLEAR     32  24  73 N8        30.28R WCI  24
TOMS RIVER     CLEAR     34  25  69 NW5       30.30S WCI  30
BELMAR         CLOUDY    36  23  60 N7        30.29R WCI  30
$$

PAZ047>061-062-071-212300-
EASTERN PENNSYLVANIA

CITY           SKY/WX    TMP DP  RH WIND       PRES   REMARKS
PHILADELPHIA   PTCLDY    37  21  52 NW8       30.32R WCI  31
ALLENTOWN      CLEAR     31  20  63 N3        30.30R
SCRANTON       CLOUDY    30  19  63 N7        30.28R WCI  23
$$

CTZ002-004>006-009-010-012-RIZ004-006-007-MAZ004-011-015-212300-
SOUTHERN NEW ENGLAND
 IN CT

CITY           SKY/WX    TMP DP  RH WIND       PRES   REMARKS
BRADLEY INTL   CLOUDY    34  29  82 N5        30.30R WCI  30
HARTFORD       CLOUDY    34  30  85 N7        30.32R WCI  28
DANBURY        CLOUDY    33  27  78 CALM      30.30R
WTRBRY/OXFORD  LGT SNOW  34  27  75 N5        30.28R WCI  30
BRIDGEPORT     LGT RAIN  36  33  89 N6        30.30R WCI  31
MERIDEN        LGT SNOW  33  30  88 N7        30.31R FOG     WCI  27
NEW HAVEN      CLOUDY    36  31  82 N8        30.30R FOG     WCI  30
CHESTER        CLOUDY    34  32  93 N5        30.28R WCI  30
GROTON         LGT RAIN  35  34  96 N7        30.29R WCI  29
WILLIMANTIC    CLOUDY    35  29  78 N6        30.30R WCI  30

 IN RI

CITY           SKY/WX    TMP DP  RH WIND       PRES   REMARKS
PROVIDENCE     FLURRIES  33  30  88 NE9       30.31R WCI  25
BLOCK ISLAND   CLOUDY    37  34  87 NE13G20   30.27R WCI  29
WESTERLY       CLOUDY    36  32  85 NE8       30.29R WCI  30

 IN MA

CITY           SKY/WX    TMP DP  RH WIND       PRES   REMARKS
BOSTON         FLURRIES  34  28  79 N8        30.32S WCI  27
WORCESTER      CLOUDY    29  27  92 NE6       30.27R WCI  23
WESTFIELD      CLOUDY    33  29  85 N6        30.31R WCI  28
PROVINCETOWN   CLOUDY    43  32  65 NE7       30.29S
NANTUCKET      CLOUDY    42  32  67 NE5       30.27R
$$

ANZ330-335-338-340-345-350-353-355-212300-
COASTAL MARINE OBSERVATIONS


STATION/POSITION TIME  SKY/WX   TEMP    WIND        PRES    VSBY  WAVE
                                AIR SEA DIR/SP/G                  HT/PER
                 (UTC)          (F)     (DEG/KT/KT) (MB)    (MI)  (FT/S)
NY HARB ENTRANCE 2200            37 46  340/ 12/ 14 1026.0          1/ 9
4S FIRE IS       2200               45                N/A           2/ 5
20S FIRE ISLAND  2100            38 49              1025.7          2/10
23SW MTP         2200                                 N/A           3/ 5
HUDSON CANYON    2200            40 55  340/  8/ 12 1025.0          2/ 4
EXECUTION ROCKS  2200            36 41  350/  8/ 12   N/A
WESTERN LI SOUND 2200            36     340/  8/ 10   N/A           0
CENTRAL LI SOUND 2100            35 44  350/ 10/ 12   N/A           1/ 3
EASTERN LI SOUND NOT AVBL
ROBBINS REEF     2200            36     150/  5/  6 1024.7
$$


>>>>>>>>>>>>>>>>>>>>>>>>>>>> KEY <<<<<<<<<<<<<<<<<<<<<<<<<<<
>                                                          <
>     SKY/WX - SKY CONDITION/PRESENT WEATHER               <
>     TMP    - TEMPERATURE IN FAHRENHEIT                   <
>     DP     - DEWPOINT IN FAHRENHEIT                      <
>     RH     - RELATIVE HUMIDITY IN PERCENT                <
>     WIND   - DIRECTION AND SPEED IN MPH                  <
>     PRES   - MEAN SEA LEVEL PRESSURE IN INCHES OF HG     <
>     WCI    - WIND CHILL INDEX                            <
>     VSB    - VISIBILITY IN MILES                         <
>     HX     - HEAT INDEX                                  <
>     TC     - TEMPERATURE IN CELSIUS                      <
>     VRB    - VARIABLE WIND DIRECTION                     <
>                                                          <
>>>>>>>>>>>>>>>>>>>>>>>>>>>> KEY <<<<<<<<<<<<<<<<<<<<<<<<<<<





USA.gov is the U.S. government's official web portal to all federal, state and local government web resources and services.